User: anonymous   Login
Location: Unspecified
(44.4377°N, 88.0525°W)
Time: 20:16:44
(UTC-06:00)
Language:

Okean 3 - Orbit

View from above orbital plane
View from above orbital plane
View from above satellite
View from above satellite

Ground track
Ground track

The orbit data is extracted from the following two-line orbital elements,

1 21397U 91039A   19051.84796520  .00000227  00000-0  19395-4 0  9993
2 21397  82.5201 275.3647 0017605 349.4889  10.5960 14.92767383501322
Epoch (UTC): 20 February 2019 20:21:04
Eccentricity: 0.0017605
inclination: 82.5201°
perigee height: 577 km
apogee height: 601 km
right ascension of ascending node: 275.3647°
argument of perigee: 349.4889°
revolutions per day: 14.92767383
mean anomaly at epoch: 10.5960°
orbit number at epoch: 50132

The dashed part of the orbit path shows where the satellite is in the earth's shadow,  

DLR